Terug naar catalogus

STARLINK-4389

ActiefCommunicatieSSO
NORAD 53475·PAYLOAD·🇺🇸 United States

Gelanceerd Aug 12, 2022 vanaf Vandenberg Space Force Base

Loading…

Volgende Passages (komende 24 uur)

TLE

VersSource: CelesTrak SupGP

Epoch: Sep 14, 2026, 22:01 UTC

1 53475C 22099L   26257.91784722  .00614640  00000+0  15354-1 0  2574
2 53475  97.4967  25.0262 0001574  92.7017 286.3583 15.39890008    17

Volg STARLINK-4389 in realtime met AllMySat

Download on the App Store